TimeEST,TemperatureF,Dew PointF,Humidity,Sea Level PressureIn,VisibilityMPH,Wind Direction,Wind SpeedMPH,Gust SpeedMPH,PrecipitationIn,Events,Conditions,WindDirDegrees,DateUTC
12:15 AM,35.6,33.8,93,30.32,5.0,Calm,Calm,-,N/A,,Clear,0,2013-01-05 05:15:00
12:35 AM,35.6,33.8,93,30.32,4.0,Calm,Calm,-,N/A,,Clear,0,2013-01-05 05:35:00
12:55 AM,35.6,33.8,93,30.32,5.0,Calm,Calm,-,N/A,,Clear,0,2013-01-05 05:55:00
1:15 AM,35.6,33.8,93,30.31,4.0,Calm,Calm,-,N/A,,Clear,0,2013-01-05 06:15:00
1:35 AM,33.8,32.0,93,30.31,3.0,Calm,Calm,-,N/A,,Clear,0,2013-01-05 06:35:00
2:15 AM,33.8,32.0,93,30.31,4.0,Calm,Calm,-,N/A,,Clear,0,2013-01-05 07:15:00
2:35 AM,32.0,32.0,100,30.32,4.0,Calm,Calm,-,N/A,,Clear,0,2013-01-05 07:35:00
2:55 AM,33.8,32.0,93,30.32,4.0,Calm,Calm,-,N/A,,Clear,0,2013-01-05 07:55:00
3:15 AM,33.8,32.0,93,30.32,4.0,Calm,Calm,-,N/A,,Clear,0,2013-01-05 08:15:00
3:35 AM,33.8,32.0,93,30.32,7.0,Calm,Calm,-,N/A,,Clear,0,2013-01-05 08:35:00
3:55 AM,32.0,32.0,100,30.33,7.0,Calm,Calm,-,N/A,,Clear,0,2013-01-05 08:55:00
4:15 AM,35.6,33.8,93,30.33,10.0,North,4.6,-,N/A,,Clear,10,2013-01-05 09:15:00
4:35 AM,39.2,32.0,75,30.34,10.0,North,6.9,-,N/A,,Clear,10,2013-01-05 09:35:00
4:55 AM,39.2,28.4,65,30.34,10.0,North,5.8,-,N/A,,Clear,10,2013-01-05 09:55:00
5:15 AM,39.2,28.4,65,30.34,7.0,NNE,4.6,-,N/A,,Clear,20,2013-01-05 10:15:00
5:55 AM,39.2,28.4,65,30.35,10.0,NNE,3.5,-,N/A,,Clear,30,2013-01-05 10:55:00
6:15 AM,37.4,26.6,65,30.35,10.0,Calm,Calm,-,N/A,,Clear,0,2013-01-05 11:15:00
6:35 AM,35.6,28.4,75,30.35,10.0,NNE,3.5,-,N/A,,Clear,30,2013-01-05 11:35:00
6:55 AM,32.0,28.4,87,30.36,7.0,Calm,Calm,-,N/A,,Clear,0,2013-01-05 11:55:00
7:15 AM,33.8,28.4,81,30.37,10.0,Calm,Calm,-,N/A,,Clear,0,2013-01-05 12:15:00
7:35 AM,32.0,30.2,93,30.38,7.0,Calm,Calm,-,N/A,,Clear,0,2013-01-05 12:35:00
8:15 AM,33.8,30.2,87,30.39,7.0,Calm,Calm,-,N/A,,Clear,0,2013-01-05 13:15:00
8:35 AM,37.4,30.2,75,30.39,7.0,Calm,Calm,-,N/A,,Clear,0,2013-01-05 13:35:00
8:55 AM,39.2,28.4,65,30.40,7.0,NE,5.8,-,N/A,,Clear,50,2013-01-05 13:55:00
9:15 AM,41.0,28.4,61,30.40,7.0,NE,6.9,-,N/A,,Clear,40,2013-01-05 14:15:00
9:35 AM,42.8,28.4,57,30.41,10.0,NE,8.1,-,N/A,,Clear,50,2013-01-05 14:35:00
9:55 AM,44.6,28.4,53,30.42,10.0,ENE,4.6,-,N/A,,Clear,60,2013-01-05 14:55:00
10:15 AM,44.6,26.6,49,30.42,10.0,NE,8.1,-,N/A,,Clear,50,2013-01-05 15:15:00
10:35 AM,46.4,28.4,50,30.42,7.0,Calm,Calm,-,N/A,,Clear,0,2013-01-05 15:35:00
11:15 AM,48.2,26.6,43,30.41,7.0,NE,3.5,-,N/A,,Clear,40,2013-01-05 16:15:00
11:35 AM,48.2,26.6,43,30.40,7.0,ENE,3.5,-,N/A,,Clear,60,2013-01-05 16:35:00
11:55 AM,50.0,28.4,43,30.38,10.0,Calm,Calm,-,N/A,,Clear,0,2013-01-05 16:55:00
12:35 PM,51.8,24.8,35,30.36,10.0,Calm,Calm,-,N/A,,Clear,0,2013-01-05 17:35:00
1:15 PM,53.6,26.6,35,30.34,7.0,Calm,Calm,-,N/A,,Clear,0,2013-01-05 18:15:00
1:35 PM,53.6,30.2,41,30.33,7.0,NNE,3.5,-,N/A,,Clear,20,2013-01-05 18:35:00
1:55 PM,53.6,28.4,38,30.33,10.0,Calm,Calm,-,N/A,,Clear,0,2013-01-05 18:55:00
2:15 PM,55.4,28.4,36,30.32,10.0,Calm,Calm,-,N/A,,Clear,0,2013-01-05 19:15:00
2:35 PM,55.4,32.0,41,30.31,7.0,North,5.8,-,N/A,,Clear,360,2013-01-05 19:35:00
3:15 PM,55.4,32.0,41,30.31,7.0,Calm,Calm,-,N/A,,Clear,0,2013-01-05 20:15:00
3:35 PM,55.4,30.2,38,30.31,10.0,Calm,Calm,-,N/A,,Clear,0,2013-01-05 20:35:00
3:55 PM,55.4,30.2,38,30.31,7.0,Calm,Calm,-,N/A,,Clear,0,2013-01-05 20:55:00
4:15 PM,53.6,32.0,44,30.31,10.0,Calm,Calm,-,N/A,,Clear,0,2013-01-05 21:15:00
4:35 PM,51.8,33.8,50,30.32,10.0,Calm,Calm,-,N/A,,Clear,0,2013-01-05 21:35:00
4:55 PM,51.8,33.8,50,30.32,7.0,Calm,Calm,-,N/A,,Clear,0,2013-01-05 21:55:00
5:15 PM,50.0,35.6,58,30.32,10.0,Calm,Calm,-,N/A,,Clear,0,2013-01-05 22:15:00
5:35 PM,50.0,35.6,58,30.31,7.0,Calm,Calm,-,N/A,,Clear,0,2013-01-05 22:35:00
5:55 PM,48.2,37.4,66,30.32,10.0,Calm,Calm,-,N/A,,Clear,0,2013-01-05 22:55:00
6:15 PM,46.4,39.2,76,30.32,7.0,Calm,Calm,-,N/A,,Clear,0,2013-01-05 23:15:00
6:55 PM,44.6,37.4,76,30.32,7.0,Calm,Calm,-,N/A,,Clear,0,2013-01-05 23:55:00
7:35 PM,44.6,37.4,76,30.33,10.0,Calm,Calm,-,N/A,,Clear,0,2013-01-06 00:35:00
8:15 PM,44.6,39.2,81,30.33,10.0,Calm,Calm,-,N/A,,Clear,0,2013-01-06 01:15:00
8:35 PM,44.6,39.2,81,30.32,10.0,Calm,Calm,-,N/A,,Clear,0,2013-01-06 01:35:00
8:55 PM,44.6,39.2,81,30.32,7.0,Calm,Calm,-,N/A,,Clear,0,2013-01-06 01:55:00
9:15 PM,44.6,39.2,81,30.34,10.0,Calm,Calm,-,N/A,,Clear,0,2013-01-06 02:15:00
9:35 PM,42.8,39.2,87,30.33,10.0,Calm,Calm,-,N/A,,Clear,0,2013-01-06 02:35:00
9:55 PM,42.8,39.2,87,30.32,10.0,Calm,Calm,-,N/A,,Clear,0,2013-01-06 02:55:00
10:15 PM,42.8,39.2,87,30.32,10.0,Calm,Calm,-,N/A,,Clear,0,2013-01-06 03:15:00
10:35 PM,44.6,39.2,81,30.31,7.0,Calm,Calm,-,N/A,,Clear,0,2013-01-06 03:35:00
11:15 PM,44.6,41.0,87,30.31,10.0,Calm,Calm,-,N/A,,Clear,0,2013-01-06 04:15:00
11:35 PM,44.6,41.0,87,30.31,7.0,Calm,Calm,-,N/A,,Clear,0,2013-01-06 04:35:00
11:55 PM,44.6,41.0,87,30.30,7.0,Calm,Calm,-,N/A,,Scattered Clouds,0,2013-01-06 04:55:00